RYR7SR EDSB-LEPA

Flight info

Callsign RYR7SR
Flight time N/A
Altitude 39000
Route STR1Z STR R11 OBORN R112 MIRGU DCT MOROK DCT GILIR DCT GEVEA DCT INCUS DCT BALSI DCT RETNO DCT TUPOX DCT MTG DCT DIVKO DCT VATIR DCT PIVUS DCT BODEQ DCT VERSO L129 LUNIK
Aircraft B738/M-SDE3FGILRWY/SB1

Departure

Time 2026-05-04 19:10
Airport Karlsruhe Baden-Baden Airport (EDSB)

Arrival

Time N/A
Airport Palma de Mallorca Airport (LEPA)
Time Latitude Longitude Altitude Speed Heading
2026-05-04 18:52 48.78173 8.08907 405 ft 0 kts 159°
2026-05-04 19:05 48.78172 8.08907 411 ft 0 kts 167°
2026-05-04 19:05 48.78169 8.08903 411 ft 1 kts 206°
2026-05-04 19:05 48.78170 8.08889 408 ft 2 kts 287°
2026-05-04 19:06 48.78190 8.08864 411 ft 5 kts 330°
2026-05-04 19:06 48.78233 8.08831 411 ft 8 kts 317°
2026-05-04 19:06 48.78261 8.08766 411 ft 8 kts 302°
2026-05-04 19:06 48.78298 8.08699 411 ft 8 kts 338°
2026-05-04 19:07 48.78350 8.08732 411 ft 9 kts 31°
2026-05-04 19:07 48.78413 8.08791 409 ft 12 kts 32°
2026-05-04 19:07 48.78487 8.08861 411 ft 13 kts 31°
2026-05-04 19:07 48.78567 8.08935 412 ft 14 kts 32°
2026-05-04 19:08 48.78651 8.09014 412 ft 15 kts 32°
2026-05-04 19:08 48.78741 8.09098 408 ft 16 kts 32°
2026-05-04 19:08 48.78835 8.09187 412 ft 17 kts 31°
2026-05-04 19:08 48.78934 8.09279 411 ft 12 kts 31°
2026-05-04 19:09 48.79000 8.09289 411 ft 10 kts 325°
2026-05-04 19:09 48.79040 8.09204 411 ft 10 kts 302°
2026-05-04 19:09 48.79054 8.09111 411 ft 10 kts 241°
2026-05-04 19:09 48.78972 8.09023 412 ft 33 kts 212°
2026-05-04 19:10 48.78571 8.08647 412 ft 101 kts 212°
2026-05-04 19:10 48.77805 8.07929 412 ft 156 kts 212°
2026-05-04 19:10 48.76857 8.07004 902 ft 164 kts 214°
2026-05-04 19:10 48.75896 8.06027 1548 ft 169 kts 213°
2026-05-04 19:11 48.74908 8.05019 2205 ft 172 kts 213°
2026-05-04 19:11 48.73839 8.03936 2522 ft 198 kts 213°
2026-05-04 19:11 48.72624 8.02713 2753 ft 220 kts 214°
2026-05-04 19:11 48.71295 8.01376 3016 ft 237 kts 214°
2026-05-04 19:12 48.69878 7.99956 3304 ft 255 kts 213°
2026-05-04 19:12 48.66868 7.96949 4775 ft 260 kts 213°
2026-05-04 19:12 48.65353 7.95440 5557 ft 262 kts 212°
2026-05-04 19:13 48.63824 7.93920 6341 ft 264 kts 212°
2026-05-04 19:13 48.62288 7.92393 7126 ft 265 kts 212°
2026-05-04 19:13 48.60742 7.90858 7926 ft 267 kts 212°
2026-05-04 19:13 48.59187 7.89316 8751 ft 268 kts 212°
2026-05-04 19:14 48.57621 7.87764 9574 ft 271 kts 211°
2026-05-04 19:14 48.56035 7.86193 10312 ft 277 kts 212°
2026-05-04 19:14 48.54355 7.84532 10524 ft 301 kts 212°
2026-05-04 19:14 48.52534 7.82732 10769 ft 323 kts 212°